SCP
1 1 1 1 1 1 1 1 1 1 0 0 0 0 0 0 0 0 0 0 0 0 0 0 0 0 0 0 0 0 0 0 0 0 0 0 0 0 0 0 0 0 0
1 1 1 1 1 1 1 1 1 1 0 0 0 0 0 0 0 0 0 0 0 0 0 0 0 0 0 0 0 0 0 0 0 0 0 0 0 0 0 0 0 0 0
1 1 1 1 1 1 1 1 1 1 0 0 0 0 0 0 0 0 0 0 0 0 0 0 0 0 0 0 0 0 0 0 0 0 0 0 0 0 0 0 0 0 0
1 1 1 1 1 1 1 1 1 0 0 0 0 0 0 0 0 0 0 0 0 0 0 0 0 0 0 0 0 0 0 0 0 0 0 0 0 0 0 0 0 0 0
1 1 1 1 1 1 1 0 0 0 0 0 0 0 0 0 0 0 0 0 0 0 0 0 0 0 0 0 0 0 0 0 0 0 0 0 0 0 0 0 0 0 0
2 2 1 1 1 1 1 1 0 0 0 0 0 0 0 0 0 0 0 0 0 0 0 0 0 0 0 0 0 0 0 0 0 0 0 0 0 0 0 0 0 0 0
1 1 1 1 1 1 1 1 1 0 0 0 0 0 0 0 0 0 0 0 0 0 0 0 0 0 0 0 0 0 0 0 0 0 0 0 0 0 0 0 0 0 0
1 1 1 1 1 1 1 1 1 1 0 0 0 0 0 0 0 0 0 0 0 0 0 0 0 0 0 0 0 0 0 0 0 0 0 0 0 0 0 0 0 0 0
0 1 1 2 1 1 1 1 1 1 1 1 0 0 0 0 0 0 0 0 0 0 0 0 0 0 0 0 0 0 0 0 0 0 0 0 0 0 0 0 0 0 0
0 1 1 1 1 1 1 1 1 1 1 1 1 0 0 0 0 0 0 0 0 0 0 0 0 0 0 0 0 0 0 0 0 0 0 0 0 0 0 0 0 0 0
0 0 1 1 1 1 1 1 1 1 1 1 1 1 0 0 0 0 0 0 0 0 0 0 0 0 0 0 0 0 0 0 0 0 0 0 0 0 0 0 0 0 0
0 1 1 1 1 1 1 2 1 1 1 1 1 1 1 0 0 0 0 0 0 0 0 0 0 0 0 0 0 0 0 0 0 0 0 0 0 0 0 0 0 0 0
0 1 1 1 2 1 2 2 2 1 1 1 1 1 1 1 0 0 0 0 0 1 0 0 0 0 0 0 0 0 0 0 0 0 0 0 0 0 0 0 0 0 0
0 1 1 1 2 2 2 2 2 2 2 2 2 1 1 1 1 0 0 1 1 0 0 0 0 0 0 0 0 0 0 0 0 0 0 0 0 0 0 0 0 0 0
1 1 1 1 1 2 2 2 2 2 3 3 2 2 1 1 1 1 1 1 1 0 0 0 0 0 0 0 0 0 0 0 0 0 0 0 0 0 0 0 0 0 0
1 1 1 1 1 1 2 2 2 2 3 3 3 3 2 2 1 1 1 1 1 0 0 0 0 0 0 0 0 0 0 0 0 0 0 0 0 0 0 0 0 0 0
1 1 1 1 1 1 2 2 2 2 3 3 3 3 3 2 2 2 1 1 1 1 0 0 0 0 0 0 0 0 0 0 0 0 0 0 0 0 0 0 0 0 0
2 2 1 1 1 1 1 1 2 2 2 2 3 3 3 3 2 2 2 1 1 1 1 1 0 0 0 0 0 0 0 0 0 0 0 0 0 0 0 0 0 0 0
2 2 1 1 0 0 0 1 1 1 2 2 3 3 3 3 2 2 2 2 1 1 1 1 1 1 0 0 0 0 0 0 0 0 0 0 0 0 0 0 0 0 0
2 1 1 0 0 0 0 0 1 1 1 1 2 3 4 3 2 2 2 2 2 2 1 1 1 1 0 0 0 0 0 0 0 0 0 0 0 0 0 0 0 0 0
1 1 0 0 0 0 0 0 0 0 0 1 2 3 3 3 2 2 2 2 2 2 2 1 1 1 1 0 0 0 0 0 0 0 0 0 0 0 0 0 0 0 0
0 0 0 0 0 0 0 0 0 0 0 0 1 2 3 3 2 2 2 3 3 2 2 2 1 1 1 0 0 0 0 0 0 0 0 0 0 0 0 0 0 0 0
0 0 0 0 0 0 0 0 0 0 0 0 1 1 2 2 3 2 2 3 3 3 3 2 2 1 1 1 0 0 0 0 0 0 0 0 0 0 0 0 0 0 0
0 0 0 0 0 0 0 0 0 0 1 1 1 1 1 2 2 3 3 3 3 3 3 3 3 2 2 1 1 0 0 0 0 0 0 0 0 0 0 0 0 0 0
0 0 0 0 0 0 0 0 0 1 1 1 1 1 1 1 2 2 2 2 2 3 3 3 3 3 2 1 1 0 0 0 0 0 0 0 0 0 0 0 0 0 0
0 0 0 0 0 0 0 0 0 1 1 1 1 1 1 1 1 1 1 1 1 2 2 3 3 3 2 1 1 0 0 0 0 0 0 0 0 0 0 0 0 0 0
Wind_Speed
5 4 5 5 4 4 5 5 5 4 4 3 2 2 1 1 1 2 2 3 3 4 4 3 3 3 3 2 3 3 3 3 2 3 3 4 4 4 3 3 3 3 3
4 4 5 4 5 4 5 6 6 5 4 3 2 2 2 1 1 1 2 2 3 3 4 3 3 2 2 3 3 3 2 1 2 2 2 2 4 4 3 3 3 3 3
8 7 6 5 5 5 5 6 5 5 4 4 3 3 3 3 3 2 1 2 2 3 3 3 2 2 2 2 2 2 3 1 1 1 3 3 1 1 3 3 3 3 2
8 8 8 7 7 6 5 5 5 5 4 5 5 5 3 2 1 1 0 1 1 2 2 3 2 2 2 2 1 2 2 2 1 1 1 2 3 2 1 3 3 3 3
9 9 9 9 8 7 6 5 6 5 4 5 6 5 3 2 1 1 1 1 1 1 2 2 2 2 2 2 2 2 2 2 2 1 1 1 1 2 3 0 2 2 2
7 8 8 7 6 6 5 5 6 5 5 5 5 5 5 3 3 2 1 0 0 0 0 1 1 1 2 2 2 2 2 1 2 1 1 2 1 1 2 2 0 1 2
7 7 8 7 7 7 7 6 6 5 5 5 5 5 5 5 4 3 2 2 1 0 1 1 1 1 1 2 2 2 1 2 2 1 1 1 1 2 2 3 1 0 1
6 8 9 8 8 8 8 7 7 6 6 6 5 4 5 3 3 3 3 3 2 2 2 1 1 1 2 2 2 2 1 1 1 1 1 1 1 2 2 3 3 1 1
6 7 8 8 8 8 8 8 8 6 6 6 5 4 4 4 3 3 3 2 2 2 2 2 2 1 1 2 2 2 1 1 1 1 1 1 1 1 1 2 3 4 2
4 4 5 6 7 8 7 7 7 7 7 6 6 5 4 4 4 3 3 2 2 2 2 2 2 2 1 2 2 1 1 1 1 1 1 1 0 1 1 2 2 2 3
4 4 4 4 5 5 6 6 6 6 6 6 5 5 4 4 4 4 3 3 2 2 2 2 2 2 2 2 2 1 1 1 0 0 1 1 1 1 1 1 1 2 2
4 3 3 2 3 5 5 6 5 6 6 5 5 5 5 4 4 3 3 3 3 2 3 2 2 3 2 2 2 2 1 1 1 1 1 1 1 1 1 1 2 2 2
2 2 2 2 3 4 5 5 5 6 5 5 5 5 5 5 5 4 4 3 3 3 2 3 3 3 3 3 2 2 2 1 2 2 2 2 1 1 1 1 2 2 2
3 3 2 2 2 2 4 5 5 5 5 5 5 5 5 5 5 4 4 3 3 3 3 3 3 3 3 3 2 2 2 1 1 1 2 2 3 3 3 2 2 2 2
2 3 2 1 1 1 2 3 4 4 5 5 5 5 5 4 4 4 3 3 3 3 3 3 2 2 2 3 3 3 2 1 1 1 1 2 2 3 3 2 2 3 2
3 3 2 2 2 2 2 3 3 4 5 6 6 5 4 4 4 4 3 3 3 2 3 3 3 2 2 2 3 4 3 2 2 1 1 1 1 2 3 3 4 5 4
3 3 3 3 4 4 3 3 4 4 4 5 5 4 4 4 4 3 3 3 3 3 3 3 3 3 3 4 4 4 3 2 2 2 1 1 1 1 1 2 3 3 4
3 3 3 2 2 2 2 2 3 4 4 4 4 4 4 4 3 3 3 3 3 3 3 3 3 3 2 3 4 4 2 2 2 2 2 2 2 1 1 2 2 1 2
2 2 3 2 1 1 2 2 2 3 4 4 4 5 5 5 4 4 4 3 3 3 3 3 3 3 3 3 4 3 2 1 2 2 2 2 2 3 2 2 2 1 1
0 1 1 1 2 1 2 2 2 3 4 4 4 4 5 5 5 5 4 3 3 3 2 2 2 3 3 3 4 4 2 2 1 1 2 4 4 3 3 3 3 2 2
1 1 2 1 1 1 2 3 3 4 4 4 3 3 4 4 5 4 3 3 3 2 2 2 2 2 3 3 4 4 3 3 2 2 2 2 3 4 4 3 3 4 2
1 1 1 0 1 1 2 2 3 4 3 3 3 3 3 3 3 3 3 3 3 3 2 2 2 2 2 3 3 4 4 3 3 3 3 3 3 3 4 3 3 3 2
1 1 0 0 1 1 1 2 3 2 2 3 3 3 3 3 3 4 4 3 3 3 3 3 3 2 2 2 4 4 4 4 3 3 4 4 3 2 2 4 4 3 2
1 0 1 0 1 2 1 2 2 2 3 3 3 3 3 2 3 3 3 3 4 4 4 4 4 3 2 2 2 2 2 3 2 2 2 3 2 1 2 2 2 2 3
2 1 0 1 2 2 2 2 1 2 2 2 2 2 2 3 3 3 3 4 5 6 6 5 5 4 4 5 6 4 3 3 3 1 0 0 0 1 1 1 1 1 2
2 2 2 2 2 2 3 2 2 3 3 2 2 2 2 2 2 2 2 3 4 6 7 8 6 5 7 6 6 6 6 5 4 2 2 2 3 3 3 2 2 2 2
Wind_Direction
187 165 158 141 134 138 136 130 130 133 120 109 105 98 90 68 63 75 91 94 93 99 102 97 88 83 82 80 79 76 66 51 61 69 38 18 26 35 37 38 47 43 39
168 164 158 148 142 152 150 141 142 141 137 138 139 136 130 110 95 74 71 84 94 103 114 110 108 104 96 80 73 80 80 48 55 97 86 30 7 7 18 30 51 41 39
177 174 166 166 154 153 162 157 152 146 140 133 110 87 65 51 43 43 46 40 87 97 112 117 119 121 115 115 105 101 107 101 18 80 121 123 176 329 351 10 28 32 42
178 175 170 170 171 168 167 162 153 146 141 134 127 126 127 137 183 177 126 48 88 99 110 119 122 128 122 127 135 121 122 122 98 11 54 135 152 138 15 347 0 16 31
178 180 179 176 172 163 163 161 151 149 148 143 143 140 137 156 149 105 91 74 67 100 116 121 117 127 134 146 133 114 115 125 142 144 104 74 71 102 130 196 339 359 354
179 181 181 170 162 156 162 157 154 156 155 151 150 151 152 149 137 134 128 112 57 25 147 126 120 141 147 153 148 137 130 128 122 123 122 133 137 156 137 150 191 335 323
178 178 177 172 171 169 175 165 164 167 166 161 164 165 161 158 164 168 168 159 152 223 234 167 163 171 180 170 150 134 134 141 142 156 157 156 169 158 142 135 152 139 321
180 183 184 180 181 180 176 173 174 178 174 170 175 172 165 162 172 177 176 179 185 204 211 183 180 181 174 162 156 141 155 141 161 168 164 151 178 151 147 151 144 114 356
177 185 183 180 183 183 180 178 178 180 179 177 173 174 178 173 175 178 175 179 189 191 183 173 165 160 152 152 151 145 167 155 172 183 172 161 186 153 150 146 150 148 160
174 174 181 189 188 185 184 179 178 181 183 180 179 179 178 176 171 161 166 174 185 179 170 166 155 156 141 128 127 147 172 155 195 168 139 148 197 167 149 154 153 147 154
186 191 191 194 191 183 176 176 181 181 186 183 180 171 173 172 164 164 173 175 174 174 176 169 155 156 145 132 126 152 149 151 165 131 146 207 188 170 175 152 143 146 142
187 183 182 176 184 183 182 178 182 184 190 184 176 174 176 167 166 173 178 172 168 173 171 152 145 150 142 135 140 152 146 166 177 197 170 226 202 194 202 170 175 180 174
151 146 154 167 185 191 188 187 185 187 185 172 171 173 173 172 177 183 184 175 168 165 160 149 156 160 158 151 161 160 151 171 196 202 195 215 182 205 223 197 190 190 168
138 133 138 164 179 192 199 196 195 189 178 166 167 175 185 185 185 184 184 180 170 164 165 167 174 173 172 167 170 159 161 166 211 223 211 212 197 204 202 198 191 167 150
143 150 158 168 175 176 214 201 199 191 176 165 168 181 186 180 177 176 176 174 168 170 170 162 166 178 178 181 174 173 173 173 202 242 235 228 209 200 192 182 179 165 165
179 174 169 167 182 191 208 200 195 194 173 169 177 179 171 168 174 181 178 169 168 174 165 166 173 187 206 192 175 167 170 174 189 227 266 262 235 224 203 188 177 169 173
199 195 196 193 198 202 199 199 198 176 167 175 177 172 169 172 182 178 169 176 180 173 178 185 179 189 209 193 182 176 171 176 192 207 226 264 284 260 202 190 186 187 186
207 214 212 206 211 203 207 210 183 165 171 177 173 170 168 175 177 165 172 186 180 182 192 196 192 184 207 189 178 174 168 176 196 197 202 214 246 226 181 161 146 178 215
204 209 206 187 182 194 192 167 166 165 170 182 183 183 178 174 171 177 187 187 176 184 192 188 185 188 218 204 187 169 163 178 211 216 210 209 214 216 189 154 159 180 276
183 184 175 137 138 182 168 153 172 167 183 197 197 194 185 176 181 190 191 186 181 187 175 175 190 198 215 214 202 176 167 183 220 237 239 225 213 205 184 175 174 194 236
82 110 118 133 189 190 149 156 175 194 203 195 187 187 190 188 186 187 184 173 175 162 165 184 211 214 218 225 218 192 180 189 205 220 236 244 226 205 193 189 190 206 205
55 77 99 38 310 161 147 177 207 216 196 177 176 183 189 190 178 170 177 176 169 164 181 194 222 245 244 233 229 214 212 201 197 221 229 233 238 226 208 205 213 208 174
25 26 105 12 344 320 171 200 226 205 174 167 179 183 187 189 178 178 181 180 179 183 199 199 215 234 242 246 246 235 230 222 217 223 228 230 228 226 223 215 212 191 173
306 338 68 79 314 303 260 221 213 181 156 171 188 185 181 194 195 193 189 186 194 199 206 210 220 228 237 240 233 226 226 223 233 238 236 235 233 223 237 238 224 204 195
316 328 314 258 271 281 284 275 207 158 161 184 190 194 191 192 206 212 210 205 212 209 208 213 210 207 225 233 224 215 218 214 215 202 196 174 196 226 264 269 246 221 207
321 317 295 270 278 279 276 275 229 176 165 176 195 194 191 192 204 210 253 252 235 233 227 221 217 223 228 233 231 229 233 229 207 183 201 218 220 222 228 230 235 230 225